Content
SEND FEEDBACK

Daily
Averages
Monthly
Summary
United States of America

PORT HUENEME, CALIFORNIA


Home > North America > United States > California
Elevation: 5 feet     Latitude: 34 11N     Longitude: 119 10W

WEATHER
 
SELECT A DAY
Number of Records: 188,982;   Date Range: 1/1/95 - 9/29/14
 
SHARE

PRINT THIS DATA

[ ← Previous Day ]
WEATHER ALMANAC - JANUARY 23, 2013
[ Next Day → ]
[ °C ]   °F
Weather ElementAverageHighLow
Temperature61.2 °F73 °F (11:51 am)55 °F (10:51 pm)
Dewpoint33.2 °F48 °F (8:51 pm)19 °F (6:51 am)
Humidity39.8 %77 % (10:51 pm)19 % (11:51 am)
Barometer30.04 in30.10 in (10:51 pm)30.01 in (4:51 am)
Wind Speed5.4 mph10.4 mph (11:51 pm)
Weather ElementAverage
Visibility9.9 mi
Wind DirectionENE (82.9 °)

Weather ElementTotal
Precipitation0.05 in
Heating Degree Days1 (Base 65)
Growing Degree Days14 (Base 50)
Averaged from 21 records on January 23, 2013
WEATHER CONDITIONS BREAKOUT
WIND DIRECTION BREAKOUT
WEATHER BY HOUR - JANUARY 23, 2013
[ °C ]   °F
Local TimeTemperatureDewpointHumidityBarometerVisibilityWind DirectionWind SpeedGust SpeedPrecipitationEventsConditions
1:51 AM57.9 °F21.9 °F25 %30.04 in10.0 miENE (60°)4.6 mphClear
2:51 AM57.9 °F21.0 °F24 %30.03 in10.0 miCalmClear
3:51 AM57.9 °F21.9 °F25 %30.02 in10.0 miENE (60°)4.6 mphClear
4:51 AM57.9 °F21.0 °F24 %30.01 in10.0 miENE (70°)5.8 mphClear
5:51 AM60.1 °F19.9 °F21 %30.02 in10.0 miNE (40°)6.9 mphClear
6:51 AM60.1 °F19.0 °F20 %30.01 in10.0 miNE (50°)9.2 mphClear
7:51 AM61.0 °F21.0 °F21 %30.02 in10.0 miNE (50°)8.1 mphClear
8:51 AM63.0 °F21.9 °F21 %30.02 in10.0 miNE (50°)9.2 mphClear
10:51 AM68.0 °F26.1 °F21 %30.04 in10.0 miNE (50°)5.8 mphClear
11:51 AM73.0 °F28.0 °F19 %30.03 in10.0 miCalmClear
12:51 PM66.9 °F37.0 °F33 %30.02 in10.0 miSSE (160°)6.9 mphOvercast
1:51 PM68.0 °F39.9 °F36 %30.01 in10.0 miSE (130°)4.6 mph0.00 inClear
2:51 PM68.0 °F36.0 °F31 %30.02 in10.0 miSouth (170°)5.8 mphScattered Clouds
3:51 PM64.0 °F37.0 °F37 %30.03 in10.0 miSW (220°)4.6 mphMostly Cloudy
4:51 PM62.1 °F41.0 °F46 %30.04 in10.0 miCalmOvercast
6:51 PM57.9 °F46.0 °F65 %30.04 in10.0 miNW (320°)9.2 mphOvercast
7:51 PM57.0 °F46.9 °F69 %30.07 in10.0 miCalmOvercast
8:51 PM57.0 °F48.0 °F72 %30.08 in10.0 miENE (60°)4.6 mph0.00 inRainLight Rain
9:51 PM57.0 °F48.0 °F72 %30.09 in10.0 miESE (110°)4.6 mph0.00 inRainLight Rain
10:51 PM55.0 °F48.0 °F77 %30.10 in8.0 miEast (80°)8.1 mph0.03 inRainLight Rain
11:51 PM55.0 °F48.0 °F77 %30.10 in10.0 miENE (60°)10.4 mph0.02 inRainLight Rain
Hourly data recorded from KOXR, located miles away from Port Hueneme, California







STORIES FROM OUR PARTNERS